FW1093 Weather Reports


Display with metric or nautical units.
time (UTC)temp
F
wind
direction
speed
MPH
gust
MPH
rain 1hr
in
rain 24hr
in
rain mn
in
humidity
%
barometer
mb
20181212104322 28 257 0.0 2.0 0.00 0.00 0.00 78 1016.7
20181212103322 29 352 0.0 2.0 0.00 0.00 0.00 78 1016.6
20181212102322 29 321 0.0 3.0 0.00 0.00 0.00 78 1016.5
20181212101322 29 15 0.0 2.0 0.00 0.00 0.00 77 1016.3
20181212100326 29 60 0.0 2.0 0.00 0.00 0.00 77 1016.2
20181212095323 29 311 1.0 4.0 0.00 0.00 0.00 77 1016.1
20181212094322 29 337 1.0 3.0 0.00 0.00 0.00 77 1016.0
20181212093325 29 324 0.0 2.0 0.00 0.00 0.00 77 1016.0
20181212092323 29 30 0.0 2.0 0.00 0.00 0.00 77 1015.9
20181212091323 28 348 0.0 4.0 0.00 0.00 0.00 77 1015.9
20181212090327 28 70 0.0 3.0 0.00 0.00 0.00 77 1015.8
20181212085324 28 284 0.0 2.0 0.00 0.00 0.00 77 1015.7
20181212084323 28 18 1.0 4.0 0.00 0.00 0.00 77 1015.7
20181212083327 28 31 1.0 3.0 0.00 0.00 0.00 77 1015.7
20181212082326 28 89 0.0 2.0 0.00 0.00 0.00 78 1015.6
20181212081326 28 312 0.0 2.0 0.00 0.00 0.00 77 1015.5
20181212080326 28 352 1.0 3.0 0.00 0.00 0.00 77 1015.5
20181212075327 28 3 0.0 1.0 0.00 0.00 0.00 77 1015.4
20181212074327 28 359 0.0 1.0 0.00 0.00 0.00 77 1015.3
20181212073327 28 23 0.0 2.0 0.00 0.00 0.00 77 1015.1
20181212072330 28 11 0.0 1.0 0.00 0.00 0.00 77 1015.1
20181212071330 28 250 0.0 1.0 0.00 0.00 0.00 77 1014.9
20181212070330 28 329 0.0 1.0 0.00 0.00 0.00 76 1014.9
20181212065331 28 18 0.0 2.0 0.00 0.00 0.00 77 1014.7
20181212064331 28 351 0.0 2.0 0.00 0.00 0.00 77 1014.7
20181212063331 28 250 0.0 2.0 0.00 0.00 0.00 77 1014.4
20181212062315 27 1 0.0 1.0 0.00 0.00 0.00 77 1014.3
20181212061314 28 223 0.0 1.0 0.00 0.00 0.00 77 1014.4
20181212060313 28 273 0.0 1.0 0.00 0.00 0.00 76 1014.4
20181212055315 28 290 0.0 4.0 0.00 0.00 0.00 76 1014.4
20181212054334 28 27 0.0 2.0 0.00 0.00 0.00 77 1014.3
20181212053332 28 48 0.0 2.0 0.00 0.00 0.00 77 1014.2
20181212052331 29 347 0.0 1.0 0.00 0.00 0.00 78 1014.3
20181212051314 29 317 0.0 1.0 0.00 0.00 0.00 77 1014.2
20181212050315 29 253 0.0 0.0 0.00 0.00 0.00 77 1014.2
20181212045332 29 253 0.0 0.0 0.00 0.00 0.00 79 1014.2
20181212044315 29 253 0.0 0.0 0.00 0.00 0.00 80 1014.2
20181212043315 29 253 0.0 0.0 0.00 0.00 0.00 79 1014.3
20181212042314 29 253 0.0 0.0 0.00 0.00 0.00 79 1014.4
20181212041318 28 253 0.0 0.0 0.00 0.00 0.00 82 1014.4
20181212040318 28 253 0.0 0.0 0.00 0.00 0.00 83 1014.5
20181212035315 28 253 0.0 0.0 0.00 0.00 0.00 83 1014.5
20181212034319 28 253 0.0 0.0 0.00 0.00 0.00 84 1014.7
20181212033319 28 253 0.0 0.0 0.00 0.00 0.00 84 1014.7
20181212032319 28 117 0.0 0.0 0.00 0.00 0.00 85 1014.6
20181212031318 28 117 0.0 2.0 0.00 0.00 0.00 85 1014.6
20181212030322 28 253 0.0 1.0 0.00 0.00 0.00 87 1014.5
20181212025318 27 351 0.0 1.0 0.00 0.00 0.00 89 1014.5
20181212024318 26 352 0.0 1.0 0.00 0.00 0.00 88 1014.6
20181212023322 26 314 0.0 0.0 0.00 0.00 0.00 89 1014.6
20181212022321 26 313 0.0 0.0 0.00 0.00 0.00 89 1014.7
20181212021322 26 313 0.0 0.0 0.00 0.00 0.00 88 1014.7
20181212020326 26 313 0.0 0.0 0.00 0.00 0.00 89 1014.8
20181212015324 26 314 0.0 0.0 0.00 0.00 0.00 91 1014.9
20181212014324 25 314 0.0 0.0 0.00 0.00 0.00 92 1015.0
20181212013328 24 314 0.0 0.0 0.00 0.00 0.00 92 1014.9
20181212012326 24 314 0.0 0.0 0.00 0.00 0.00 91 1015.0
20181212011326 24 314 0.0 0.0 0.00 0.00 0.00 91 1015.1
20181212010327 24 314 0.0 0.0 0.00 0.00 0.00 91 1015.1
20181212005329 24 314 0.0 0.0 0.00 0.00 0.00 90 1015.3
20181212003329 25 314 0.0 0.0 0.00 0.00 0.00 90 1015.2
20181212002312 25 314 0.0 0.0 0.00 0.00 0.00 89 1015.3
20181212001312 25 314 0.0 0.0 0.00 0.00 0.00 89 1015.2
20181212000313 25 314 0.0 0.0 0.00 0.00 0.00 88 1015.3
20181211235314 25 314 0.0 0.0 0.00 0.00 0.00 87 1015.2
20181211234314 26 314 0.0 0.0 0.00 0.00 0.00 86 1015.3
20181211233315 26 314 0.0 0.0 0.00 0.00 0.00 85 1015.4
20181211232318 26 314 0.0 0.0 0.00 0.00 0.00 86 1015.3
20181211231318 26 314 0.0 0.0 0.00 0.00 0.00 84 1015.3
20181211230319 27 314 0.0 0.0 0.00 0.00 0.00 83 1015.4
20181211225320 28 314 0.0 0.0 0.00 0.00 0.00 82 1015.3
20181211224320 28 314 0.0 0.0 0.00 0.00 0.00 82 1015.3
20181211223320 28 314 0.0 0.0 0.00 0.00 0.00 82 1015.3
20181211222319 29 314 0.0 0.0 0.00 0.00 0.00 81 1015.2
20181211221323 29 314 0.0 0.0 0.00 0.00 0.00 79 1015.3
20181211220323 30 314 0.0 0.0 0.00 0.00 0.00 78 1015.5
20181211215320 30 314 0.0 0.0 0.00 0.00 0.00 76 1015.5
20181211214323 31 314 0.0 0.0 0.00 0.00 0.00 75 1015.4
20181211213324 32 314 0.0 0.0 0.00 0.00 0.00 73 1015.4
20181211212324 33 313 0.0 0.0 0.00 0.00 0.00 71 1015.4
20181211211327 34 313 0.0 0.0 0.00 0.00 0.00 70 1015.4
20181211210328 35 313 0.0 1.0 0.00 0.00 0.00 69 1015.5
20181211205325 35 249 0.0 1.0 0.00 0.00 0.00 68 1015.7
20181211204329 36 154 0.0 3.0 0.00 0.00 0.00 67 1015.7
20181211203329 36 145 0.0 2.0 0.00 0.00 0.00 66 1016.0
20181211202328 36 255 0.0 3.0 0.00 0.00 0.00 65 1016.1
20181211201326 37 271 0.0 2.0 0.00 0.00 0.00 63 1016.0
20181211200331 37 186 0.0 2.0 0.00 0.00 0.00 63 1016.2
20181211195328 37 185 1.0 3.0 0.00 0.00 0.00 61 1016.5
20181211194327 37 143 0.0 3.0 0.00 0.00 0.00 62 1016.5
20181211193331 37 124 1.0 4.0 0.00 0.00 0.00 61 1016.6
20181211192331 38 241 1.0 3.0 0.00 0.00 0.00 58 1016.8
20181211191331 38 127 1.0 4.0 0.00 0.00 0.00 57 1016.8
20181211190314 38 91 1.0 4.0 0.00 0.00 0.00 56 1016.8
20181211185331 38 139 1.0 3.0 0.00 0.00 0.00 56 1016.9
20181211184332 38 285 1.0 3.0 0.00 0.00 0.00 56 1016.9
20181211183315 37 294 0.0 4.0 0.00 0.00 0.00 57 1017.2
20181211182314 37 148 1.0 3.0 0.00 0.00 0.00 56 1017.5
20181211181313 37 241 0.0 3.0 0.00 0.00 0.00 59 1017.6
20181211180316 37 283 1.0 4.0 0.00 0.00 0.00 57 1017.8
20181211175313 37 149 1.0 4.0 0.00 0.00 0.00 58 1018.0
20181211174332 36 136 0.0 2.0 0.00 0.00 0.00 59 1018.4
20181211173332 36 158 1.0 4.0 0.00 0.00 0.00 58 1018.8
20181211172316 36 269 1.0 3.0 0.00 0.00 0.00 59 1019.0
20181211171316 36 167 0.0 3.0 0.00 0.00 0.00 58 1019.2
20181211170316 35 136 0.0 2.0 0.00 0.00 0.00 59 1019.6
20181211165317 35 123 1.0 3.0 0.00 0.00 0.00 60 1019.9
20181211164317 35 140 0.0 2.0 0.00 0.00 0.00 61 1020.2
20181211163316 34 188 0.0 5.0 0.00 0.00 0.00 62 1020.5
20181211162320 34 162 0.0 3.0 0.00 0.00 0.00 63 1020.6
20181211161320 33 244 0.0 2.0 0.00 0.00 0.00 64 1020.7
20181211160320 33 282 1.0 3.0 0.00 0.00 0.00 67 1020.8
20181211155322 32 256 0.0 1.0 0.00 0.00 0.00 68 1020.8
20181211154322 31 153 0.0 1.0 0.00 0.00 0.00 69 1020.9
20181211153322 30 147 0.0 1.0 0.00 0.00 0.00 72 1021.1
20181211152322 29 172 0.0 0.0 0.00 0.00 0.00 73 1021.2
20181211151326 28 206 0.0 0.0 0.00 0.00 0.00 78 1021.2
20181211150326 26 206 0.0 0.0 0.00 0.00 0.00 84 1021.2
20181211145324 25 206 0.0 0.0 0.00 0.00 0.00 88 1021.3
20181211144328 23 206 0.0 0.0 0.00 0.00 0.00 90 1021.4
20181211143328 22 206 0.0 0.0 0.00 0.00 0.00 92 1021.3
20181211142328 20 206 0.0 0.0 0.00 0.00 0.00 92 1021.4
20181211141332 19 206 0.0 0.0 0.00 0.00 0.00 92 1021.6
20181211140332 18 207 0.0 0.0 0.00 0.00 0.00 92 1021.7
20181211135330 17 207 0.0 0.0 0.00 0.00 0.00 92 1021.9
20181211134314 16 206 0.0 0.0 0.00 0.00 0.00 92 1022.2
20181211133314 16 206 0.0 0.0 0.00 0.00 0.00 92 1022.4
20181211132313 16 206 0.0 0.0 0.00 0.00 0.00 92 1022.4
20181211131316 15 206 0.0 0.0 0.00 0.00 0.00 92 1022.5
20181211130316 15 206 0.0 0.0 0.00 0.00 0.00 92 1022.4
20181211125314 14 206 0.0 0.0 0.00 0.00 0.00 92 1022.6
20181211124314 14 206 0.0 0.0 0.00 0.00 0.00 92 1022.8
20181211123317 14 206 0.0 0.0 0.00 0.00 0.00 91 1022.7
20181211122317 14 206 0.0 0.0 0.00 0.00 0.00 91 1022.7
20181211121317 14 206 0.0 0.0 0.00 0.00 0.00 91 1022.8
20181211120321 14 206 0.0 0.0 0.00 0.00 0.00 92 1022.6
20181211115318 15 206 0.0 0.0 0.00 0.00 0.00 91 1022.6
20181211114318 15 206 0.0 0.0 0.00 0.00 0.00 91 1022.6
20181211113323 15 206 0.0 0.0 0.00 0.00 0.00 92 1022.7
20181211112322 15 206 0.0 0.0 0.00 0.00 0.00 92 1022.7
20181211111321 15 206 0.0 0.0 0.00 0.00 0.00 92 1022.8
20181211110326 15 206 0.0 0.0 0.00 0.00 0.00 92 1022.7
20181211105322 15 206 0.0 0.0 0.00 0.00 0.00 92 1022.6